Spokane, WA

6:25 PM PST on December 03, 2016 (GMT -0800)
Spokane International

Weather History for KGEG - July, 2012

Change the Weather History Date:

Tuesday, July 10, 2012

  Actual Average Record
Temperature  
Mean Temperature 80 °F 69 °F  
Max Temperature 93 °F 82 °F 102 °F (1975)
Min Temperature 66 °F 55 °F 46 °F (1997)
Degree Days  
Heating Degree Days 0 1  
Month to date heating degree days 15 17  
Since 1 June heating degree days 190 153  
Since 1 July heating degree days 15 17  
Cooling Degree Days 15 5  
Month to date cooling degree days 69 41  
Year to date cooling degree days 99 104  
Since 1 June cooling degree days 89 90  
Growing Degree Days 28 (Base 50)    
Moisture  
Dew Point 54 °F    
Average Humidity 47    
Maximum Humidity 68    
Minimum Humidity 26    
Precipitation  
Precipitation 0.00 in 0.02 in 0.54 in (1987)
Month to date precipitation T 0.25  
Year to date precipitation 12.99 9.13  
Snow  
Snow 0.00 in 0.00 in 0.00 in (2002)
Month to date snowfall 0.0 0.0  
Since 1 June snowfall 0.0 0.0  
Since 1 July snowfall 0.0 0.0  
Snow Depth 0.00 in    
Sea Level Pressure  
Sea Level Pressure 29.94 in    
Wind  
Wind Speed 5 mph (North)    
Max Wind Speed 15 mph    
Max Gust Speed 20 mph    
Visibility 10 miles    
Events      
T = Trace of Precipitation, MM = Missing Value Source: NWS Daily Summary

Daily Weather History Graph

Daily Weather History Graph

Search for Another Location

Airport or City:

Trip Planner

Search our weather history database for the weather conditions in past years. The results will help you decide how hot, cold, wet, or windy it might be!

Date:

Astronomy

Jul. 10, 2012 Rise Set
Actual Time 5:03 AM PDT 8:47 PM PDT
Civil Twilight 4:24 AM PDT 9:26 PM PDT
Nautical Twilight 3:30 AM PDT 10:19 PM PDT
Astronomical Twilight 2:14 AM PDT 11:34 PM PDT
Moon 11:54 PM PDT (7/10) 1:11 PM PDT (7/10)
Length of Visible Light 17h 02m
Length of Day
15h 43m
Waning Gibbous, 53% of the Moon is Illuminated
Jul 10
Waning Gibbous
Jul 10
Last Quarter
Jul 18
New
Jul 26
First Quarter
Aug 1
Full

Hourly Weather History & Observations

Time (PDT) Temp. Heat Index Dew Point Humidity Pressure Visibility Wind Dir Wind Speed Gust Speed Precip Events Conditions
12:53 AM 75.9 °F - 57.9 °F 54% 29.92 in 10.0 mi SE 4.6 mph - N/A   Overcast
1:53 AM 73.0 °F - 59.0 °F 61% 29.92 in 10.0 mi North 3.5 mph - N/A   Overcast
2:53 AM 71.1 °F - 60.1 °F 68% 29.94 in 10.0 mi Variable 4.6 mph - N/A   Overcast
3:53 AM 72.0 °F - 57.9 °F 61% 29.93 in 10.0 mi ENE 5.8 mph - N/A   Overcast
4:53 AM 70.0 °F - 57.9 °F 65% 29.95 in 10.0 mi Calm Calm - N/A   Mostly Cloudy
5:53 AM 68.0 °F - 57.9 °F 70% 29.99 in 10.0 mi NW 5.8 mph - N/A   Mostly Cloudy
6:53 AM 72.0 °F - 57.0 °F 59% 30.00 in 10.0 mi NNE 6.9 mph - N/A   Mostly Cloudy
7:53 AM 77.0 °F - 53.1 °F 43% 29.98 in 10.0 mi ENE 12.7 mph - N/A   Mostly Cloudy
8:53 AM 78.1 °F - 53.1 °F 42% 29.97 in 10.0 mi ENE 11.5 mph - N/A   Mostly Cloudy
9:53 AM 81.0 °F 80.4 °F 53.1 °F 38% 29.98 in 10.0 mi East 10.4 mph - N/A   Scattered Clouds
10:53 AM 82.9 °F 81.8 °F 53.1 °F 36% 29.98 in 10.0 mi Variable 3.5 mph - N/A   Partly Cloudy
11:53 AM 87.1 °F - 51.1 °F 29% 29.98 in 10.0 mi West 8.1 mph - N/A   Scattered Clouds
12:53 PM 89.1 °F - 51.1 °F 27% 29.97 in 10.0 mi Calm Calm - N/A   Scattered Clouds
1:53 PM 91.0 °F 88.5 °F 53.1 °F 27% 29.96 in 10.0 mi North 6.9 mph - N/A   Scattered Clouds
2:53 PM 91.9 °F - 52.0 °F 26% 29.95 in 10.0 mi Variable 3.5 mph - N/A   Partly Cloudy
3:53 PM 90.0 °F - 51.1 °F 26% 29.94 in 10.0 mi Calm Calm - N/A   Scattered Clouds
4:53 PM 91.0 °F - 52.0 °F 26% 29.92 in 10.0 mi Variable 6.9 mph - N/A   Scattered Clouds
5:53 PM 91.0 °F - 51.1 °F 25% 29.90 in 10.0 mi WNW 9.2 mph - N/A   Scattered Clouds
6:53 PM 90.0 °F - 52.0 °F 27% 29.90 in 10.0 mi NW 5.8 mph - N/A   Scattered Clouds
7:53 PM 88.0 °F - 52.0 °F 29% 29.90 in 10.0 mi WNW 5.8 mph - N/A   Scattered Clouds
8:53 PM 84.0 °F 82.5 °F 53.1 °F 34% 29.91 in 10.0 mi Calm Calm - N/A   Scattered Clouds
9:53 PM 82.9 °F 81.9 °F 54.0 °F 37% 29.91 in 10.0 mi Calm Calm - N/A   Scattered Clouds
10:53 PM 78.1 °F - 55.0 °F 45% 29.92 in 10.0 mi South 4.6 mph - N/A   Scattered Clouds
11:53 PM 73.9 °F - 55.9 °F 53% 29.92 in 10.0 mi SW 5.8 mph - N/A   Partly Cloudy